GW3831 Weather Reports


Display with metric or nautical units.
time (UTC)temp
F
wind
direction
speed
MPH
gust
MPH
rain 1hr
in
rain 24hr
in
rain mn
in
humidity
%
barometer
mb
20260510174604 59 296 2.0 6.0 0.00 0.00 0.00 69 1010.5
20260510174104 59 274 2.0 9.0 0.00 0.00 0.00 69 1010.5
20260510173604 59 299 2.0 9.0 0.00 0.00 0.00 68 1010.8
20260510173105 60 278 2.0 5.0 0.00 0.00 0.00 68 1010.6
20260510172104 60 292 3.0 6.0 0.00 0.00 0.00 67 1010.8
20260510170605 61 286 2.0 5.0 0.00 0.00 0.00 65 1010.7
20260510170104 61 290 3.0 7.0 0.00 0.00 0.00 65 1010.7
20260510165604 62 303 3.0 7.0 0.00 0.00 0.00 64 1010.5
20260510165106 62 274 3.0 7.0 0.00 0.00 0.00 64 1010.5
20260510164604 62 289 3.0 7.0 0.00 0.00 0.00 64 1010.5
20260510164104 62 288 3.0 8.0 0.00 0.00 0.00 64 1010.6
20260510163104 62 316 3.0 9.0 0.00 0.00 0.00 64 1010.7
20260510162604 62 305 2.0 9.0 0.00 0.00 0.00 64 1010.8
20260510161604 62 291 2.0 6.0 0.00 0.00 0.00 64 1010.8
20260510161104 62 280 2.0 8.0 0.00 0.00 0.00 63 1011.2
20260510160604 63 310 3.0 6.0 0.00 0.00 0.00 63 1011.2
20260510160104 63 287 2.0 9.0 0.00 0.00 0.00 62 1011.2
20260510155604 64 325 2.0 9.0 0.00 0.00 0.00 62 1011.2
20260510155104 64 275 2.0 6.0 0.00 0.00 0.00 61 1011.2
20260510154604 63 231 2.0 6.0 0.00 0.00 0.00 62 1011.4
20260510153604 64 303 3.0 6.0 0.00 0.00 0.00 61 1011.2
20260510153104 64 291 2.0 9.0 0.00 0.00 0.00 59 1011.2
20260510152604 65 341 3.0 7.0 0.00 0.00 0.00 59 1011.2
20260510151604 65 287 3.0 6.0 0.00 0.00 0.00 58 1011.2
20260510145605 65 284 2.0 7.0 0.00 0.00 0.00 57 1011.9
20260510145104 65 277 3.0 6.0 0.00 0.00 0.00 56 1011.9
20260510144604 65 297 2.0 9.0 0.00 0.00 0.00 57 1011.9
20260510144105 65 292 3.0 6.0 0.00 0.00 0.00 57 1011.7
20260510143604 66 291 2.0 5.0 0.00 0.00 0.00 57 1011.9
20260510142605 66 295 2.0 5.0 0.00 0.00 0.00 56 1011.9
20260510142104 66 239 2.0 5.0 0.00 0.00 0.00 56 1011.9
20260510141604 66 155 3.0 9.0 0.00 0.00 0.00 57 1011.9
20260510141122 66 302 2.0 7.0 0.00 0.00 0.00 55 1012.2
20260510135604 66 321 4.0 9.0 0.00 0.00 0.00 54 1012.2
20260510135108 67 309 3.0 9.0 0.00 0.00 0.00 55 1012.2
20260510134604 67 296 2.0 8.0 0.00 0.00 0.00 54 1012.3
20260510134104 67 299 2.0 9.0 0.00 0.00 0.00 53 1012.5
20260510133605 67 305 1.0 6.0 0.00 0.00 0.00 53 1012.2
20260510132604 67 299 4.0 9.0 0.00 0.00 0.00 52 1012.5
20260510132110 67 242 3.0 9.0 0.00 0.00 0.00 52 1012.4
20260510131615 66 305 2.0 10.0 0.00 0.00 0.00 53 1012.5
20260510130609 66 281 3.0 9.0 0.00 0.00 0.00 52 1012.9
20260510125604 67 260 2.0 7.0 0.00 0.00 0.00 51 1012.6
20260510125107 66 316 4.0 8.0 0.00 0.00 0.00 50 1012.9
20260510124106 67 256 2.0 9.0 0.00 0.00 0.00 48 1013.5
20260510123604 67 309 5.0 9.0 0.00 0.00 0.00 48 1012.9
20260510123104 67 289 2.0 13.0 0.00 0.00 0.00 50 1013.2
20260510122604 67 298 4.0 6.0 0.00 0.00 0.00 48 1012.9
20260510122104 67 224 2.0 12.0 0.00 0.00 0.00 48 1013.2
20260510121604 66 293 5.0 12.0 0.00 0.00 0.00 50 1013.4
20260510121104 68 305 4.0 6.0 0.00 0.00 0.00 48 1013.5
20260510120605 68 290 1.0 5.0 0.00 0.00 0.00 48 1013.5
20260510120105 68 23 1.0 3.0 0.00 0.00 0.00 48 1013.5
20260510115604 67 272 1.0 5.0 0.00 0.00 0.00 49 1013.5
20260510115104 66 259 2.0 13.0 0.00 0.00 0.00 50 1013.4
20260510114604 67 279 2.0 6.0 0.00 0.00 0.00 51 1013.5
20260510113604 67 278 2.0 6.0 0.00 0.00 0.00 50 1013.5
20260510113104 66 285 3.0 6.0 0.00 0.00 0.00 50 1013.5
20260510112104 66 283 3.0 9.0 0.00 0.00 0.00 52 1013.8
20260510111604 66 279 3.0 9.0 0.00 0.00 0.00 52 1013.9
20260510110604 66 288 3.0 6.0 0.00 0.00 0.00 52 1014.0
20260510110104 66 1 2.0 8.0 0.00 0.00 0.00 52 1014.1
20260510105604 66 287 2.0 5.0 0.00 0.00 0.00 52 1014.2
20260510105104 64 292 3.0 8.0 0.00 0.00 0.00 57 1013.9
20260510103105 65 280 3.0 9.0 0.00 0.00 0.00 55 1014.2
20260510102606 65 267 2.0 7.0 0.00 0.00 0.00 54 1014.2
20260510101604 65 273 5.0 7.0 0.00 0.00 0.00 55 1014.2
20260510100104 65 299 2.0 7.0 0.00 0.00 0.00 54 1014.5
20260510095609 65 308 3.0 6.0 0.00 0.00 0.00 52 1014.6
20260510095104 66 295 2.0 5.0 0.00 0.00 0.00 52 1014.4
20260510094604 66 225 1.0 3.0 0.00 0.00 0.00 51 1014.8
20260510094105 64 273 2.0 6.0 0.00 0.00 0.00 53 1014.6
20260510093604 64 297 4.0 8.0 0.00 0.00 0.00 56 1014.6
20260510093105 63 297 4.0 7.0 0.00 0.00 0.00 56 1014.8
20260510092604 64 300 3.0 5.0 0.00 0.00 0.00 56 1014.9
20260510092104 63 295 2.0 7.0 0.00 0.00 0.00 58 1014.9
20260510091604 62 278 3.0 7.0 0.00 0.00 0.00 58 1014.7
20260510090605 62 278 2.0 6.0 0.00 0.00 0.00 59 1014.8
20260510090104 62 315 2.0 7.0 0.00 0.00 0.00 59 1014.6
20260510085604 62 321 4.0 7.0 0.00 0.00 0.00 59 1014.6
20260510085104 64 293 2.0 7.0 0.00 0.00 0.00 59 1014.9
20260510084604 63 282 1.0 6.0 0.00 0.00 0.00 59 1014.6
20260510083604 61 262 2.0 6.0 0.00 0.00 0.00 62 1014.9
20260510083104 61 321 3.0 6.0 0.00 0.00 0.00 63 1014.9
20260510082606 61 284 2.0 7.0 0.00 0.00 0.00 62 1015.2
20260510081604 60 263 2.0 6.0 0.00 0.00 0.00 62 1015.2
20260510081106 60 246 2.0 7.0 0.00 0.00 0.00 64 1015.2
20260510080105 60 288 2.0 6.0 0.00 0.00 0.00 63 1015.0
20260510075104 60 285 3.0 5.0 0.00 0.00 0.00 63 1015.2
20260510074605 60 297 2.0 6.0 0.00 0.00 0.00 63 1015.2
20260510074106 59 298 3.0 6.0 0.00 0.00 0.00 64 1015.2
20260510073604 59 279 2.0 5.0 0.00 0.00 0.00 65 1015.2
20260510073106 60 204 2.0 5.0 0.00 0.00 0.00 65 1015.2
20260510072604 59 278 2.0 5.0 0.00 0.00 0.00 65 1015.2
20260510072104 59 241 1.0 3.0 0.00 0.00 0.00 68 1015.2
20260510071605 58 295 1.0 5.0 0.00 0.00 0.00 68 1015.6
20260510071104 57 209 2.0 5.0 0.00 0.00 0.00 69 1015.2
20260510070604 57 293 2.0 3.0 0.00 0.00 0.00 70 1015.2
20260510070105 57 296 1.0 5.0 0.00 0.00 0.00 71 1015.5
20260510065604 57 312 3.0 6.0 0.00 0.00 0.00 71 1015.2
20260510065105 57 293 3.0 6.0 0.00 0.00 0.00 72 1015.2
20260510064604 57 270 2.0 6.0 0.00 0.00 0.00 74 1015.0
20260510064104 56 274 3.0 6.0 0.00 0.00 0.00 74 1015.2
20260510063606 56 178 1.0 5.0 0.00 0.00 0.00 75 1015.6
20260510061604 54 309 1.0 5.0 0.00 0.00 0.00 79 1015.6
20260510061104 54 272 2.0 3.0 0.00 0.00 0.00 80 1015.6
20260510060104 53 308 1.0 3.0 0.00 0.00 0.00 83 1015.6
20260510055604 53 346 1.0 5.0 0.00 0.00 0.00 83 1015.3
20260510054604 52 292 1.0 3.0 0.00 0.00 0.00 84 1015.2
20260510054104 52 255 2.0 3.0 0.00 0.00 0.00 85 1015.5
20260510053604 52 141 2.0 3.0 0.00 0.00 0.00 85 1015.3
20260510053104 51 297 2.0 6.0 0.00 0.00 0.00 86 1015.6
20260510052606 51 291 1.0 6.0 0.00 0.00 0.00 87 1015.6
20260510051604 51 233 0.0 3.0 0.00 0.00 0.00 87 1015.6
20260510051104 50 256 2.0 6.0 0.00 0.00 0.00 88 1015.5
20260510050604 50 273 2.0 3.0 0.00 0.00 0.00 88 1015.5
20260510050105 50 279 2.0 3.0 0.00 0.00 0.00 89 1015.2
20260510045604 50 313 1.0 3.0 0.00 0.00 0.00 89 1015.2
20260510044104 50 307 1.0 3.0 0.00 0.00 0.00 90 1015.6
20260510043604 50 294 1.0 3.0 0.00 0.00 0.00 90 1015.5
20260510042603 49 321 0.0 3.0 0.00 0.00 0.00 90 1015.3
20260510042104 50 343 1.0 2.0 0.00 0.00 0.00 90 1015.6
20260510041104 50 353 1.0 3.0 0.00 0.00 0.00 90 1015.2
20260510040604 50 281 1.0 2.0 0.00 0.00 0.00 90 1015.5
20260510040104 50 313 2.0 2.0 0.00 0.00 0.00 90 1015.6
20260510035605 50 300 1.0 2.0 0.00 0.00 0.00 90 1015.3
20260510035104 50 334 1.0 2.0 0.00 0.00 0.00 90 1015.2
20260510034605 50 323 0.0 2.0 0.00 0.00 0.00 89 1015.3
20260510034105 50 290 2.0 2.0 0.00 0.00 0.00 89 1015.6
20260510033606 50 313 1.0 2.0 0.00 0.00 0.00 89 1015.3
20260510033104 50 152 0.0 2.0 0.00 0.00 0.00 89 1015.6
20260510032604 50 306 1.0 2.0 0.00 0.00 0.00 89 1015.5
20260510032104 50 267 1.0 3.0 0.00 0.00 0.00 89 1015.6
20260510031604 50 274 1.0 3.0 0.00 0.00 0.00 89 1015.8
20260510031104 50 211 1.0 2.0 0.00 0.00 0.00 89 1015.6
20260510030604 50 282 1.0 2.0 0.00 0.00 0.00 89 1015.6
20260510030104 50 310 1.0 2.0 0.00 0.00 0.00 89 1015.6
20260510025104 50 299 1.0 2.0 0.00 0.00 0.00 89 1015.6
20260510024604 50 303 1.0 2.0 0.00 0.00 0.00 89 1015.9
20260510024104 51 284 1.0 2.0 0.00 0.00 0.00 89 1015.6
20260510023605 51 311 1.0 3.0 0.00 0.00 0.00 89 1015.6
20260510023104 51 283 0.0 2.0 0.00 0.00 0.00 88 1015.6
20260510022104 51 281 1.0 2.0 0.00 0.00 0.00 88 1015.8
20260510021604 51 210 0.0 2.0 0.00 0.00 0.00 88 1015.7
20260510021104 51 264 0.0 2.0 0.00 0.00 0.00 88 1015.8
20260510020604 51 286 1.0 3.0 0.00 0.00 0.00 87 1015.7
20260510020105 51 284 1.0 5.0 0.00 0.00 0.00 87 1015.9
20260510015605 51 289 0.0 2.0 0.00 0.00 0.00 87 1015.7
20260510015105 51 238 0.0 2.0 0.00 0.00 0.00 87 1015.6
20260510014604 51 264 0.0 2.0 0.00 0.00 0.00 87 1015.6
20260510013604 51 304 2.0 3.0 0.00 0.00 0.00 86 1015.9
20260510012605 51 320 1.0 2.0 0.00 0.00 0.00 86 1015.9
20260510011605 51 339 0.0 2.0 0.00 0.00 0.00 85 1016.0
20260510011104 51 309 1.0 2.0 0.00 0.00 0.00 85 1016.2
20260510010604 51 278 1.0 2.0 0.00 0.00 0.00 85 1015.9
20260510010106 51 297 1.0 2.0 0.00 0.00 0.00 84 1015.9
20260510005605 51 298 1.0 2.0 0.00 0.00 0.00 84 1015.9
20260510004604 51 60 0.0 2.0 0.00 0.00 0.00 84 1015.9
20260510004104 51 311 1.0 2.0 0.00 0.00 0.00 83 1016.3
20260510003604 51 291 0.0 2.0 0.00 0.00 0.00 83 1016.0
20260510003104 51 325 1.0 2.0 0.00 0.00 0.00 82 1016.3
20260510002604 51 307 0.0 2.0 0.00 0.00 0.00 82 1016.3
20260510002104 51 322 1.0 2.0 0.00 0.00 0.00 81 1016.3
20260510001604 51 304 0.0 1.0 0.00 0.00 0.00 81 1016.3
20260510001105 51 306 0.0 1.0 0.00 0.00 0.00 81 1016.2
20260510000604 51 264 0.0 1.0 0.00 0.00 0.00 80 1016.3
20260510000104 51 311 1.0 2.0 0.00 0.00 0.00 80 1016.6
20260509235106 52 311 0.0 2.0 0.00 0.00 0.00 79 1016.5
20260509234105 52 298 0.0 2.0 0.00 0.00 0.00 78 1016.5
20260509233604 52 317 1.0 2.0 0.00 0.00 0.00 77 1016.6
20260509233104 52 313 1.0 2.0 0.00 0.00 0.00 77 1016.5
20260509232104 52 313 0.0 2.0 0.00 0.00 0.00 76 1016.4
20260509231604 53 302 1.0 2.0 0.00 0.00 0.00 75 1016.5
20260509230605 53 282 0.0 2.0 0.00 0.00 0.00 74 1016.6
20260509230105 53 283 0.0 1.0 0.00 0.00 0.00 74 1016.5
20260509225105 53 250 0.0 1.0 0.00 0.00 0.00 72 1016.3
20260509224604 53 323 0.0 1.0 0.00 0.00 0.00 72 1016.6
20260509224104 53 292 1.0 1.0 0.00 0.00 0.00 71 1016.6
20260509223604 53 282 1.0 1.0 0.00 0.00 0.00 71 1016.5
20260509223104 54 18 0.0 1.0 0.00 0.00 0.00 71 1016.6
20260509222104 54 323 0.0 2.0 0.00 0.00 0.00 70 1016.4
20260509221604 54 319 1.0 2.0 0.00 0.00 0.00 70 1016.6
20260509220604 55 110 0.0 1.0 0.00 0.00 0.00 70 1016.4
20260509220105 55 274 0.0 1.0 0.00 0.00 0.00 69 1016.6
20260509215604 55 281 0.0 1.0 0.00 0.00 0.00 69 1016.6
20260509214604 55 252 0.0 2.0 0.00 0.00 0.00 68 1016.5
20260509214105 55 284 1.0 2.0 0.00 0.00 0.00 68 1016.4
20260509213605 56 133 0.0 2.0 0.00 0.00 0.00 68 1016.6
20260509213104 56 296 1.0 2.0 0.00 0.00 0.00 68 1016.5
20260509212604 56 235 0.0 2.0 0.00 0.00 0.00 67 1016.4
20260509212105 56 320 1.0 2.0 0.00 0.00 0.00 67 1016.3
20260509211104 56 278 1.0 2.0 0.00 0.00 0.00 67 1016.3
20260509210605 56 226 0.0 1.0 0.00 0.00 0.00 67 1016.3
20260509210105 56 228 1.0 2.0 0.00 0.00 0.00 67 1016.3
20260509205605 56 296 0.0 1.0 0.00 0.00 0.00 67 1016.3
20260509205104 57 300 1.0 1.0 0.00 0.00 0.00 66 1016.3
20260509204604 57 292 1.0 1.0 0.00 0.00 0.00 66 1016.3
20260509204106 57 185 0.0 2.0 0.00 0.00 0.00 65 1016.3
20260509203604 57 260 1.0 2.0 0.00 0.00 0.00 65 1016.3
20260509202604 58 269 0.0 1.0 0.00 0.00 0.00 64 1016.3
20260509201604 58 237 0.0 1.0 0.00 0.00 0.00 63 1016.3
20260509201104 59 286 1.0 1.0 0.00 0.00 0.00 62 1016.5
20260509200604 59 275 0.0 2.0 0.00 0.00 0.00 61 1016.0
20260509200104 59 261 1.0 2.0 0.00 0.00 0.00 61 1016.3
20260509194604 60 269 0.0 2.0 0.00 0.00 0.00 59 1015.9
20260509194104 60 268 0.0 2.0 0.00 0.00 0.00 59 1016.2
20260509193604 60 264 1.0 2.0 0.00 0.00 0.00 59 1016.3
20260509191604 62 289 1.0 2.0 0.00 0.00 0.00 57 1016.3
20260509191104 62 278 1.0 1.0 0.00 0.00 0.00 57 1015.9
20260509190104 63 292 1.0 2.0 0.00 0.00 0.00 55 1016.3
20260509185104 63 286 1.0 2.0 0.00 0.00 0.00 54 1015.9
20260509184604 64 281 0.0 2.0 0.00 0.00 0.00 53 1016.2
20260509184106 64 273 0.0 2.0 0.00 0.00 0.00 53 1016.2
20260509183605 64 299 0.0 3.0 0.00 0.00 0.00 53 1016.2
20260509183105 64 289 1.0 3.0 0.00 0.00 0.00 53 1015.9
20260509182104 65 259 1.0 2.0 0.00 0.00 0.00 51 1016.2
20260509181604 65 295 2.0 3.0 0.00 0.00 0.00 51 1015.9
20260509181104 66 286 2.0 3.0 0.00 0.00 0.00 51 1015.9
20260509180605 66 279 1.0 3.0 0.00 0.00 0.00 51 1015.9
20260509175604 66 259 2.0 3.0 0.00 0.00 0.00 50 1015.8
20260509175104 67 301 2.0 3.0 0.00 0.00 0.00 51 1015.6